| time (UTC) | temp C | wind direction | speed KPH | gust KPH | rain 1hr cm | rain 24hr cm | rain mn cm | humidity % | barometer mb |
| 20260504081542 | 7 | 0 | 0.0 | 0.0 | 0.00 | 0.00 | 0.00 | 73 | 1015.3 |
| 20260504044544 | 6 | 0 | 0.0 | 0.0 | 0.00 | 0.00 | 0.00 | 74 | 1015.6 |
| 20260504043043 | 5 | 0 | 0.0 | 0.0 | 0.00 | 0.00 | 0.00 | 73 | 1015.6 |
| 20260504041541 | 6 | 0 | 0.0 | 0.0 | 0.00 | 0.00 | 0.00 | 69 | 1015.6 |
| 20260504040048 | 7 | 0 | 0.0 | 0.0 | 0.00 | 0.00 | 0.00 | 68 | 1015.7 |
| 20260504034542 | 6 | 0 | 0.0 | 0.0 | 0.00 | 0.00 | 0.00 | 69 | 1015.6 |
| 20260504033052 | 5 | 0 | 0.0 | 0.0 | 0.00 | 0.00 | 0.00 | 70 | 1015.5 |
| 20260504031550 | 6 | 0 | 0.0 | 0.0 | 0.00 | 0.00 | 0.00 | 72 | 1015.3 |
| 20260504030043 | 6 | 0 | 0.0 | 0.0 | 0.00 | 0.00 | 0.00 | 71 | 1015.2 |
| 20260504024554 | 6 | 0 | 0.0 | 0.0 | 0.00 | 0.00 | 0.00 | 68 | 1015.2 |
| 20260504023044 | 6 | 0 | 0.0 | 0.0 | 0.00 | 0.00 | 0.00 | 68 | 1015.2 |
| 20260504021551 | 7 | 0 | 0.0 | 0.0 | 0.00 | 0.00 | 0.00 | 67 | 1015.1 |
| 20260504020047 | 7 | 0 | 0.0 | 0.0 | 0.00 | 0.00 | 0.00 | 65 | 1015.1 |
| 20260504014543 | 7 | 0 | 0.0 | 0.0 | 0.00 | 0.00 | 0.00 | 64 | 1015.0 |
| 20260504013047 | 8 | 0 | 0.0 | 0.0 | 0.00 | 0.00 | 0.00 | 61 | 1015.1 |
| 20260504011546 | 8 | 0 | 0.0 | 0.0 | 0.00 | 0.00 | 0.00 | 60 | 1014.9 |
| 20260504010046 | 9 | 0 | 0.0 | 0.0 | 0.00 | 0.00 | 0.00 | 56 | 1014.9 |
| 20260504004556 | 10 | 0 | 0.0 | 0.0 | 0.00 | 0.00 | 0.00 | 54 | 1014.6 |
| 20260504003042 | 11 | 0 | 0.0 | 0.0 | 0.00 | 0.00 | 0.00 | 51 | 1014.5 |
| 20260504001543 | 12 | 0 | 0.0 | 0.0 | 0.00 | 0.00 | 0.00 | 44 | 1014.3 |
| 20260504000050 | 13 | 0 | 0.0 | 6.4 | 0.00 | 0.00 | 0.00 | 38 | 1014.3 |
| 20260503234542 | 15 | 245 | 3.2 | 14.5 | 0.00 | 0.00 | 0.00 | 35 | 1014.1 |
| 20260503233041 | 15 | 272 | 3.2 | 9.7 | 0.00 | 0.00 | 0.00 | 34 | 1014.1 |
| 20260503231549 | 15 | 250 | 4.8 | 16.1 | 0.00 | 0.00 | 0.00 | 34 | 1013.9 |
| 20260503230051 | 15 | 288 | 3.2 | 9.7 | 0.00 | 0.00 | 0.00 | 34 | 1013.8 |
| 20260503224546 | 15 | 283 | 9.7 | 22.5 | 0.00 | 0.00 | 0.00 | 31 | 1013.9 |
| 20260503223043 | 15 | 316 | 12.9 | 24.1 | 0.00 | 0.00 | 0.00 | 31 | 1014.1 |
| 20260503221543 | 15 | 296 | 11.3 | 24.1 | 0.00 | 0.00 | 0.00 | 31 | 1014.1 |
| 20260503220048 | 15 | 278 | 11.3 | 19.3 | 0.00 | 0.00 | 0.00 | 31 | 1013.9 |
| 20260503214545 | 15 | 224 | 8.0 | 25.7 | 0.00 | 0.00 | 0.00 | 32 | 1014.0 |
| 20260503213043 | 15 | 291 | 8.0 | 19.3 | 0.00 | 0.00 | 0.00 | 32 | 1014.0 |
| 20260503211542 | 15 | 295 | 4.8 | 24.1 | 0.00 | 0.00 | 0.00 | 33 | 1013.9 |
| 20260503210040 | 15 | 290 | 14.5 | 27.4 | 0.00 | 0.00 | 0.00 | 32 | 1014.2 |
| 20260503204548 | 15 | 236 | 14.5 | 27.4 | 0.00 | 0.00 | 0.00 | 33 | 1014.0 |
| 20260503203042 | 15 | 321 | 9.7 | 24.1 | 0.00 | 0.00 | 0.00 | 33 | 1014.2 |
| 20260503201542 | 15 | 257 | 14.5 | 27.4 | 0.00 | 0.00 | 0.00 | 34 | 1014.5 |
| 20260503200041 | 14 | 278 | 16.1 | 27.4 | 0.00 | 0.00 | 0.00 | 35 | 1014.5 |
| 20260503194543 | 14 | 330 | 11.3 | 29.0 | 0.00 | 0.00 | 0.00 | 36 | 1014.8 |
| 20260503193055 | 14 | 252 | 16.1 | 32.2 | 0.00 | 0.00 | 0.00 | 37 | 1015.1 |
| 20260503191543 | 13 | 269 | 11.3 | 27.4 | 0.00 | 0.00 | 0.00 | 39 | 1015.3 |
| 20260503190047 | 13 | 298 | 17.7 | 32.2 | 0.00 | 0.00 | 0.00 | 39 | 1015.3 |
| 20260503184554 | 13 | 248 | 12.9 | 30.6 | 0.00 | 0.00 | 0.00 | 40 | 1015.4 |
| 20260503183044 | 12 | 262 | 11.3 | 30.6 | 0.00 | 0.00 | 0.00 | 42 | 1015.6 |
| 20260503181542 | 12 | 281 | 17.7 | 33.8 | 0.00 | 0.00 | 0.00 | 40 | 1015.8 |
| 20260503180042 | 12 | 236 | 9.7 | 27.4 | 0.00 | 0.00 | 0.00 | 42 | 1016.0 |
| 20260503174600 | 12 | 304 | 9.7 | 35.4 | 0.00 | 0.00 | 0.00 | 42 | 1016.1 |
| 20260503173057 | 12 | 254 | 16.1 | 30.6 | 0.00 | 0.00 | 0.00 | 40 | 1016.2 |
| 20260503171542 | 11 | 37 | 16.1 | 33.8 | 0.00 | 0.00 | 0.00 | 43 | 1016.3 |